Time,TemperatureF,DewpointF,PressureIn,WindDirection,WindDirectionDegrees,WindSpeedMPH,WindSpeedGustMPH,Humidity,HourlyPrecipIn,Conditions,Clouds,dailyrainin,SoftwareType,DateUTC
2013-02-11 00:02:00,45.0,40.0,30.14,South,186,0.0,0.0,84,0.02,,,0.02,,2013-02-11 05:02:00,
2013-02-11 00:12:00,45.0,41.0,30.12,SSE,158,0.0,2.0,86,0.02,,,0.02,,2013-02-11 05:12:00,
2013-02-11 00:22:00,45.0,41.0,30.12,SSE,158,0.0,2.0,86,0.02,,,0.02,,2013-02-11 05:22:00,
2013-02-11 00:32:00,45.0,41.0,30.12,SE,141,0.0,2.0,87,0.00,,,0.02,,2013-02-11 05:32:00,
2013-02-11 00:42:00,45.0,41.0,30.12,SE,141,0.0,2.0,87,0.00,,,0.02,,2013-02-11 05:42:00,
2013-02-11 00:53:00,45.0,42.0,30.12,SSE,157,0.0,3.0,89,0.00,,,0.02,,2013-02-11 05:53:00,
2013-02-11 01:02:00,46.0,43.0,30.12,SSE,158,0.0,0.0,89,0.00,,,0.02,,2013-02-11 06:02:00,
2013-02-11 01:12:00,46.0,43.0,30.12,SSE,158,0.0,0.0,89,0.00,,,0.02,,2013-02-11 06:12:00,
2013-02-11 01:22:00,46.0,43.0,30.11,SSE,162,0.0,3.0,89,0.00,,,0.02,,2013-02-11 06:22:00,
2013-02-11 01:32:00,46.0,43.0,30.10,SSE,163,0.0,3.0,90,0.00,,,0.02,,2013-02-11 06:32:00,
2013-02-11 01:42:00,46.0,44.0,30.09,South,169,1.0,3.0,91,0.00,,,0.02,,2013-02-11 06:42:00,
2013-02-11 01:52:00,46.0,44.0,30.09,South,169,1.0,3.0,91,0.00,,,0.02,,2013-02-11 06:52:00,
2013-02-11 02:01:00,47.0,45.0,30.08,South,176,1.0,4.0,91,0.01,,,0.03,,2013-02-11 07:01:00,
2013-02-11 02:11:00,48.0,45.0,30.07,SSW,203,0.0,6.0,91,0.01,,,0.03,,2013-02-11 07:11:00,
2013-02-11 02:22:00,48.0,45.0,30.07,SSW,203,0.0,6.0,91,0.01,,,0.03,,2013-02-11 07:22:00,
2013-02-11 02:32:00,49.0,46.0,30.08,South,183,0.0,3.0,91,0.01,,,0.03,,2013-02-11 07:32:00,
2013-02-11 02:42:00,49.0,46.0,30.07,South,171,0.0,5.0,91,0.01,,,0.03,,2013-02-11 07:42:00,
2013-02-11 02:52:00,49.0,46.0,30.07,South,171,0.0,5.0,91,0.01,,,0.03,,2013-02-11 07:52:00,
2013-02-11 03:01:00,49.0,46.0,30.06,South,171,0.0,0.0,91,0.00,,,0.03,,2013-02-11 08:01:00,
2013-02-11 03:11:00,49.0,47.0,30.06,South,172,0.0,0.0,92,0.00,,,0.03,,2013-02-11 08:11:00,
2013-02-11 03:21:00,49.0,47.0,30.06,South,172,0.0,0.0,92,0.00,,,0.03,,2013-02-11 08:21:00,
2013-02-11 03:32:00,49.0,47.0,30.06,South,172,0.0,0.0,92,0.00,,,0.03,,2013-02-11 08:32:00,
2013-02-11 03:42:00,49.0,47.0,30.04,South,172,0.0,0.0,93,0.00,,,0.03,,2013-02-11 08:42:00,
2013-02-11 03:52:00,49.0,47.0,30.04,South,172,0.0,0.0,93,0.00,,,0.03,,2013-02-11 08:52:00,
2013-02-11 04:01:00,50.0,48.0,30.03,SSE,168,0.0,1.0,94,0.00,,,0.03,,2013-02-11 09:01:00,
2013-02-11 04:12:00,50.0,48.0,30.03,SSE,168,0.0,1.0,94,0.00,,,0.03,,2013-02-11 09:12:00,
2013-02-11 04:21:00,50.0,48.0,30.03,SSE,167,0.0,1.0,93,0.00,,,0.03,,2013-02-11 09:21:00,
2013-02-11 04:32:00,50.0,48.0,30.03,SSE,167,0.0,0.0,94,0.00,,,0.03,,2013-02-11 09:32:00,
2013-02-11 04:42:00,50.0,48.0,30.03,SSE,167,0.0,0.0,94,0.00,,,0.03,,2013-02-11 09:42:00,
2013-02-11 04:52:00,50.0,48.0,30.02,SSE,167,0.0,0.0,94,0.00,,,0.03,,2013-02-11 09:52:00,
2013-02-11 05:01:00,50.0,48.0,30.02,SSE,167,0.0,0.0,94,0.00,,,0.03,,2013-02-11 10:01:00,
2013-02-11 05:11:00,50.0,48.0,30.02,SSE,167,0.0,0.0,94,0.00,,,0.03,,2013-02-11 10:11:00,
2013-02-11 05:21:00,50.0,48.0,30.01,SSE,167,0.0,0.0,94,0.00,,,0.03,,2013-02-11 10:21:00,
2013-02-11 05:32:00,51.0,50.0,30.02,SSE,168,0.0,2.0,95,0.00,,,0.03,,2013-02-11 10:32:00,
2013-02-11 05:42:00,51.0,50.0,30.02,SSE,168,0.0,2.0,95,0.00,,,0.03,,2013-02-11 10:42:00,
2013-02-11 05:52:00,51.0,50.0,30.01,SSE,167,0.0,0.0,95,0.00,,,0.03,,2013-02-11 10:52:00,
2013-02-11 06:02:00,51.0,50.0,30.02,SSE,168,0.0,0.0,95,0.00,,,0.03,,2013-02-11 11:02:00,
2013-02-11 06:11:00,51.0,50.0,30.02,SSE,168,0.0,0.0,95,0.00,,,0.03,,2013-02-11 11:11:00,
2013-02-11 06:22:00,52.0,51.0,30.02,SSE,168,0.0,0.0,96,0.00,,,0.03,,2013-02-11 11:22:00,
2013-02-11 06:32:00,52.0,51.0,30.02,SSE,168,0.0,1.0,96,0.00,,,0.03,,2013-02-11 11:32:00,
2013-02-11 06:42:00,53.0,52.0,30.02,South,175,0.0,3.0,96,0.00,,,0.03,,2013-02-11 11:42:00,
2013-02-11 06:52:00,53.0,52.0,30.02,South,175,0.0,3.0,96,0.00,,,0.03,,2013-02-11 11:52:00,
2013-02-11 07:03:00,53.0,52.0,30.01,South,185,1.0,5.0,96,0.00,,,0.03,,2013-02-11 12:03:00,
2013-02-11 07:12:00,53.0,52.0,30.01,South,185,1.0,5.0,96,0.00,,,0.03,,2013-02-11 12:12:00,
2013-02-11 07:22:00,53.0,52.0,30.02,SSW,192,1.0,4.0,97,0.01,,,0.04,,2013-02-11 12:22:00,
2013-02-11 07:32:00,54.0,53.0,30.01,South,173,0.0,2.0,97,0.01,,,0.04,,2013-02-11 12:32:00,
2013-02-11 07:42:00,54.0,53.0,30.01,South,187,1.0,4.0,97,0.02,,,0.05,,2013-02-11 12:42:00,
2013-02-11 07:52:00,54.0,53.0,30.01,South,187,1.0,4.0,97,0.02,,,0.05,,2013-02-11 12:52:00,
2013-02-11 08:02:00,55.0,54.0,30.01,South,185,0.0,4.0,98,0.03,,,0.06,,2013-02-11 13:02:00,
2013-02-11 08:12:00,56.0,55.0,30.02,SSW,195,0.0,6.0,98,0.04,,,0.08,,2013-02-11 13:12:00,
2013-02-11 08:22:00,56.0,55.0,30.02,SSW,195,0.0,6.0,98,0.04,,,0.08,,2013-02-11 13:22:00,
2013-02-11 08:33:00,56.0,55.0,30.01,SSW,193,2.0,6.0,98,0.04,,,0.08,,2013-02-11 13:33:00,
2013-02-11 08:42:00,56.0,55.0,30.01,SSW,193,2.0,6.0,98,0.04,,,0.08,,2013-02-11 13:42:00,
2013-02-11 08:52:00,57.0,56.0,30.01,SSW,193,2.0,15.0,98,0.04,,,0.09,,2013-02-11 13:52:00,
2013-02-11 09:02:00,57.0,56.0,29.99,South,186,2.0,10.0,98,0.04,,,0.10,,2013-02-11 14:02:00,
2013-02-11 09:12:00,57.0,56.0,29.99,South,186,2.0,10.0,98,0.04,,,0.10,,2013-02-11 14:12:00,
2013-02-11 09:22:00,57.0,56.0,29.98,South,172,3.0,14.0,98,0.02,,,0.10,,2013-02-11 14:22:00,
2013-02-11 09:33:00,58.0,57.0,29.97,SW,222,4.0,11.0,98,0.02,,,0.10,,2013-02-11 14:33:00,
2013-02-11 09:42:00,58.0,57.0,29.96,SSW,209,3.0,12.0,98,0.01,,,0.10,,2013-02-11 14:42:00,
2013-02-11 09:53:00,58.0,57.0,29.96,SSW,209,3.0,12.0,98,0.01,,,0.10,,2013-02-11 14:53:00,
2013-02-11 10:02:00,58.0,57.0,29.96,SSW,194,4.0,11.0,98,0.00,,,0.10,,2013-02-11 15:02:00,
2013-02-11 10:11:00,58.0,57.0,29.96,SSW,194,4.0,11.0,98,0.00,,,0.10,,2013-02-11 15:11:00,
2013-02-11 10:22:00,58.0,57.0,29.97,SSW,211,5.0,12.0,97,0.00,,,0.10,,2013-02-11 15:22:00,
2013-02-11 10:32:00,59.0,58.0,29.98,SE,146,0.0,7.0,97,0.00,,,0.10,,2013-02-11 15:32:00,
2013-02-11 10:42:00,59.0,58.0,29.98,South,187,0.0,6.0,97,0.00,,,0.10,,2013-02-11 15:42:00,
2013-02-11 10:52:00,59.0,58.0,29.98,South,187,0.0,6.0,97,0.00,,,0.10,,2013-02-11 15:52:00,
2013-02-11 11:02:00,59.0,58.0,29.98,SSW,197,1.0,6.0,96,0.00,,,0.10,,2013-02-11 16:02:00,
2013-02-11 11:12:00,59.0,58.0,29.98,SSW,197,1.0,6.0,96,0.00,,,0.10,,2013-02-11 16:12:00,
2013-02-11 11:22:00,60.0,59.0,29.96,SSW,205,0.0,7.0,96,0.00,,,0.10,,2013-02-11 16:22:00,
2013-02-11 11:32:00,60.0,59.0,29.96,SSW,196,1.0,9.0,95,0.00,,,0.10,,2013-02-11 16:32:00,
2013-02-11 11:42:00,60.0,59.0,29.95,South,185,0.0,4.0,95,0.00,,,0.10,,2013-02-11 16:42:00,
2013-02-11 11:52:00,60.0,59.0,29.95,South,185,0.0,4.0,95,0.00,,,0.10,,2013-02-11 16:52:00,
2013-02-11 12:02:00,60.0,58.0,29.95,SW,228,3.0,11.0,94,0.00,,,0.10,,2013-02-11 17:02:00,
2013-02-11 12:11:00,60.0,58.0,29.95,SW,228,3.0,11.0,94,0.00,,,0.10,,2013-02-11 17:11:00,
2013-02-11 12:22:00,60.0,58.0,29.93,SSW,201,2.0,10.0,94,0.00,,,0.10,,2013-02-11 17:22:00,
2013-02-11 12:32:00,60.0,58.0,29.93,South,170,0.0,11.0,94,0.00,,,0.10,,2013-02-11 17:32:00,
2013-02-11 12:42:00,60.0,58.0,29.93,South,170,0.0,11.0,94,0.00,,,0.10,,2013-02-11 17:42:00,
2013-02-11 12:53:00,61.0,59.0,29.93,SSW,200,0.0,5.0,94,0.00,,,0.10,,2013-02-11 17:53:00,
2013-02-11 13:02:00,61.0,59.0,29.93,SSE,156,1.0,5.0,94,0.00,,,0.10,,2013-02-11 18:02:00,
2013-02-11 13:11:00,61.0,59.0,29.93,SSE,156,1.0,5.0,94,0.00,,,0.10,,2013-02-11 18:11:00,
2013-02-11 13:22:00,61.0,59.0,29.92,SSW,206,0.0,4.0,93,0.00,,,0.10,,2013-02-11 18:22:00,
2013-02-11 13:32:00,61.0,59.0,29.92,SE,135,0.0,7.0,94,0.00,,,0.10,,2013-02-11 18:32:00,
2013-02-11 13:42:00,61.0,60.0,29.92,SSW,201,0.0,1.0,95,0.00,,,0.10,,2013-02-11 18:42:00,
2013-02-11 13:54:00,61.0,60.0,29.92,SSW,201,0.0,1.0,95,0.00,,,0.10,,2013-02-11 18:54:00,
2013-02-11 14:02:00,61.0,60.0,29.90,South,190,0.0,5.0,95,0.00,,,0.10,,2013-02-11 19:02:00,
2013-02-11 14:11:00,61.0,60.0,29.89,SE,127,0.0,7.0,95,0.00,,,0.10,,2013-02-11 19:11:00,
2013-02-11 14:22:00,61.0,60.0,29.89,SE,127,0.0,7.0,95,0.00,,,0.10,,2013-02-11 19:22:00,
2013-02-11 14:32:00,61.0,60.0,29.89,SSW,212,0.0,5.0,95,0.00,,,0.10,,2013-02-11 19:32:00,
2013-02-11 14:42:00,61.0,60.0,29.89,SSW,212,0.0,5.0,95,0.00,,,0.10,,2013-02-11 19:42:00,
2013-02-11 14:52:00,61.0,59.0,29.89,WSW,251,0.0,3.0,94,0.00,,,0.10,,2013-02-11 19:52:00,
2013-02-11 15:01:00,62.0,60.0,29.89,WSW,238,0.0,6.0,93,0.00,,,0.10,,2013-02-11 20:01:00,
2013-02-11 15:11:00,62.0,60.0,29.89,SSW,207,1.0,6.0,92,0.00,,,0.10,,2013-02-11 20:11:00,
2013-02-11 15:22:00,62.0,60.0,29.89,SSW,207,1.0,6.0,92,0.00,,,0.10,,2013-02-11 20:22:00,
2013-02-11 15:32:00,62.0,59.0,29.88,SW,234,0.0,6.0,90,0.00,,,0.10,,2013-02-11 20:32:00,
2013-02-11 15:42:00,62.0,59.0,29.88,SE,143,1.0,4.0,89,0.00,,,0.10,,2013-02-11 20:42:00,
2013-02-11 15:52:00,62.0,59.0,29.88,SE,143,1.0,4.0,89,0.00,,,0.10,,2013-02-11 20:52:00,
2013-02-11 16:02:00,62.0,59.0,29.89,WSW,241,1.0,6.0,89,0.00,,,0.10,,2013-02-11 21:02:00,
2013-02-11 16:12:00,62.0,58.0,29.87,SSW,193,0.0,5.0,88,0.00,,,0.10,,2013-02-11 21:12:00,
2013-02-11 16:22:00,62.0,58.0,29.87,SSW,193,0.0,5.0,88,0.00,,,0.10,,2013-02-11 21:22:00,
2013-02-11 16:32:00,62.0,58.0,29.87,South,187,2.0,9.0,88,0.00,,,0.10,,2013-02-11 21:32:00,
2013-02-11 16:42:00,62.0,58.0,29.87,South,187,2.0,9.0,88,0.00,,,0.10,,2013-02-11 21:42:00,
2013-02-11 16:52:00,62.0,58.0,29.85,SW,220,0.0,4.0,87,0.00,,,0.10,,2013-02-11 21:52:00,
2013-02-11 17:02:00,63.0,59.0,29.85,South,180,0.0,6.0,86,0.00,,,0.10,,2013-02-11 22:02:00,
2013-02-11 17:12:00,62.0,58.0,29.85,SW,220,0.0,5.0,87,0.00,,,0.10,,2013-02-11 22:12:00,
2013-02-11 17:22:00,62.0,58.0,29.85,SW,220,0.0,5.0,87,0.00,,,0.10,,2013-02-11 22:22:00,
2013-02-11 17:32:00,62.0,58.0,29.85,West,266,2.0,4.0,87,0.00,,,0.10,,2013-02-11 22:32:00,
2013-02-11 17:42:00,62.0,58.0,29.85,West,266,2.0,4.0,87,0.00,,,0.10,,2013-02-11 22:42:00,
2013-02-11 17:52:00,62.0,58.0,29.87,SW,217,0.0,3.0,87,0.00,,,0.10,,2013-02-11 22:52:00,
2013-02-11 18:02:00,62.0,58.0,29.87,SSW,203,0.0,1.0,86,0.00,,,0.10,,2013-02-11 23:02:00,
2013-02-11 18:11:00,62.0,58.0,29.87,SSW,203,0.0,1.0,86,0.00,,,0.10,,2013-02-11 23:11:00,
2013-02-11 18:22:00,62.0,58.0,29.87,South,187,0.0,7.0,86,0.00,,,0.10,,2013-02-11 23:22:00,
2013-02-11 18:32:00,62.0,58.0,29.87,WNW,292,2.0,9.0,86,0.00,,,0.10,,2013-02-11 23:32:00,
2013-02-11 18:42:00,62.0,58.0,29.87,WNW,292,2.0,9.0,86,0.00,,,0.10,,2013-02-11 23:42:00,
2013-02-11 18:52:00,62.0,57.0,29.87,SW,215,2.0,5.0,84,0.00,,,0.10,,2013-02-11 23:52:00,
2013-02-11 19:02:00,62.0,57.0,29.87,WSW,254,2.0,6.0,83,0.00,,,0.10,,2013-02-12 00:02:00,
2013-02-11 19:12:00,62.0,57.0,29.87,WSW,254,2.0,6.0,83,0.00,,,0.10,,2013-02-12 00:12:00,
2013-02-11 19:22:00,62.0,57.0,29.88,WSW,248,0.0,4.0,83,0.00,,,0.10,,2013-02-12 00:22:00,
2013-02-11 19:32:00,62.0,56.0,29.87,SW,216,0.0,10.0,81,0.00,,,0.10,,2013-02-12 00:32:00,
2013-02-11 19:42:00,62.0,56.0,29.87,SW,216,0.0,10.0,81,0.00,,,0.10,,2013-02-12 00:42:00,
2013-02-11 19:52:00,62.0,56.0,29.86,ESE,121,0.0,4.0,80,0.00,,,0.10,,2013-02-12 00:52:00,
2013-02-11 20:02:00,62.0,55.0,29.87,NW,304,0.0,5.0,79,0.00,,,0.10,,2013-02-12 01:02:00,
2013-02-11 20:11:00,62.0,55.0,29.87,NW,304,0.0,5.0,79,0.00,,,0.10,,2013-02-12 01:11:00,
2013-02-11 20:22:00,62.0,56.0,29.88,SW,219,0.0,4.0,80,0.00,,,0.10,,2013-02-12 01:22:00,
2013-02-11 20:32:00,62.0,55.0,29.89,WNW,287,0.0,1.0,79,0.00,,,0.10,,2013-02-12 01:32:00,
2013-02-11 20:42:00,62.0,55.0,29.89,WNW,287,0.0,1.0,79,0.00,,,0.10,,2013-02-12 01:42:00,
2013-02-11 20:52:00,61.0,54.0,29.88,WNW,301,1.0,5.0,79,0.00,,,0.10,,2013-02-12 01:52:00,
2013-02-11 21:02:00,61.0,55.0,29.87,WNW,295,0.0,3.0,80,0.00,,,0.10,,2013-02-12 02:02:00,
2013-02-11 21:12:00,60.0,53.0,29.88,SW,230,0.0,9.0,79,0.00,,,0.10,,2013-02-12 02:12:00,
2013-02-11 21:22:00,60.0,53.0,29.88,SW,230,0.0,9.0,79,0.00,,,0.10,,2013-02-12 02:22:00,
2013-02-11 21:32:00,60.0,54.0,29.89,NW,307,0.0,3.0,80,0.00,,,0.10,,2013-02-12 02:32:00,
2013-02-11 21:42:00,60.0,54.0,29.89,NW,307,0.0,3.0,80,0.00,,,0.10,,2013-02-12 02:42:00,
2013-02-11 21:53:00,60.0,54.0,29.89,West,265,0.0,4.0,80,0.00,,,0.10,,2013-02-12 02:53:00,
2013-02-11 22:02:00,60.0,54.0,29.87,WSW,245,2.0,7.0,80,0.00,,,0.10,,2013-02-12 03:02:00,
2013-02-11 22:11:00,59.0,53.0,29.87,West,281,3.0,7.0,80,0.00,,,0.10,,2013-02-12 03:11:00,
2013-02-11 22:21:00,59.0,53.0,29.87,West,281,3.0,7.0,80,0.00,,,0.10,,2013-02-12 03:21:00,
2013-02-11 22:32:00,59.0,53.0,29.88,WSW,253,1.0,5.0,80,0.00,,,0.10,,2013-02-12 03:32:00,
2013-02-11 22:42:00,59.0,53.0,29.88,South,181,1.0,3.0,81,0.00,,,0.10,,2013-02-12 03:42:00,
2013-02-11 22:52:00,59.0,53.0,29.88,South,181,1.0,3.0,81,0.00,,,0.10,,2013-02-12 03:52:00,
2013-02-11 23:01:00,58.0,52.0,29.87,WNW,293,1.0,5.0,80,0.00,,,0.10,,2013-02-12 04:01:00,
2013-02-11 23:11:00,58.0,52.0,29.87,WNW,293,1.0,5.0,80,0.00,,,0.10,,2013-02-12 04:11:00,
2013-02-11 23:21:00,58.0,52.0,29.87,WSW,257,0.0,6.0,80,0.00,,,0.10,,2013-02-12 04:21:00,
2013-02-11 23:31:00,58.0,52.0,29.87,WNW,285,0.0,5.0,81,0.00,,,0.10,,2013-02-12 04:31:00,
2013-02-11 23:42:00,58.0,52.0,29.87,WNW,285,0.0,5.0,81,0.00,,,0.10,,2013-02-12 04:42:00,
2013-02-11 23:52:00,57.0,52.0,29.87,SW,231,0.0,4.0,83,0.00,,,0.08,,2013-02-12 04:52:00,